owner,sensor,date,latitude,longitude,vertical_datum,wind_speed,wind_to_direction,wind_speed_of_gust,qcFlag 
SCCF RECON,ioos:station:SCCF:53:1,2012-04-01T00:00:00Z,26.6493,-81.8810,2.11,1.0,307.9,-9999.0,'1111122,1111122,1111122' 
SCCF RECON,ioos:station:SCCF:53:1,2012-04-01T00:15:00Z,26.6493,-81.8810,2.11,3.1,338.3,-9999.0,'1111122,1111122,1111122' 
SCCF RECON,ioos:station:SCCF:53:1,2012-04-01T00:30:00Z,26.6493,-81.8810,2.11,0.7,291.3,-9999.0,'1111122,1111122,1111122' 
SCCF RECON,ioos:station:SCCF:53:1,2012-04-01T00:45:00Z,26.6493,-81.8810,2.11,3.6,295.3,-9999.0,'1111122,1111122,1111122' 
SCCF RECON,ioos:station:SCCF:53:1,2012-04-01T01:00:00Z,26.6493,-81.8810,2.11,2.6,290.7,-9999.0,'1111122,1111122,1111122' 
SCCF RECON,ioos:station:SCCF:53:1,2012-04-01T01:15:00Z,26.6493,-81.8810,2.11,3.1,265.1,-9999.0,'1111122,1111122,1111122' 
SCCF RECON,ioos:station:SCCF:53:1,2012-04-01T01:30:00Z,26.6493,-81.8810,2.11,2.2,256.3,-9999.0,'1111122,1111122,1111122' 
SCCF RECON,ioos:station:SCCF:53:1,2012-04-01T01:45:00Z,26.6493,-81.8810,2.11,3.4,271.4,-9999.0,'1111122,1111122,1111122' 
SCCF RECON,ioos:station:SCCF:53:1,2012-04-01T02:00:00Z,26.6493,-81.8810,2.11,3.2,265.1,-9999.0,'1111122,1111122,1111122' 
SCCF RECON,ioos:station:SCCF:53:1,2012-04-01T02:15:00Z,26.6493,-81.8810,2.11,2.0,273.0,-9999.0,'1111122,1111122,1111122' 
SCCF RECON,ioos:station:SCCF:53:1,2012-04-01T02:30:00Z,26.6493,-81.8810,2.11,2.0,254.3,-9999.0,'1111122,1111122,1111122' 
SCCF RECON,ioos:station:SCCF:53:1,2012-04-01T02:45:00Z,26.6493,-81.8810,2.11,2.8,264.3,-9999.0,'1111122,1111122,1111122' 
SCCF RECON,ioos:station:SCCF:53:1,2012-04-01T03:00:00Z,26.6493,-81.8810,2.11,2.6,237.3,-9999.0,'1111122,1111122,1111122' 
SCCF RECON,ioos:station:SCCF:53:1,2012-04-01T03:15:00Z,26.6493,-81.8810,2.11,2.8,269.9,-9999.0,'1111122,1111122,1111122' 
SCCF RECON,ioos:station:SCCF:53:1,2012-04-01T03:30:00Z,26.6493,-81.8810,2.11,0.9,246.0,-9999.0,'1111122,1111122,1111122' 
SCCF RECON,ioos:station:SCCF:53:1,2012-04-01T03:45:00Z,26.6493,-81.8810,2.11,3.2,287.9,-9999.0,'1111122,1111122,1111122' 
SCCF RECON,ioos:station:SCCF:53:1,2012-04-01T04:00:00Z,26.6493,-81.8810,2.11,2.4,289.6,-9999.0,'1111122,1111122,1111122' 
SCCF RECON,ioos:station:SCCF:53:1,2012-04-01T04:15:00Z,26.6493,-81.8810,2.11,2.2,285.9,-9999.0,'1111122,1111122,1111122' 
SCCF RECON,ioos:station:SCCF:53:1,2012-04-01T04:30:00Z,26.6493,-81.8810,2.11,2.4,275.4,-9999.0,'1111122,1111122,1111122' 
SCCF RECON,ioos:station:SCCF:53:1,2012-04-01T04:45:00Z,26.6493,-81.8810,2.11,1.6,256.1,-9999.0,'1111122,1111122,1111122' 
SCCF RECON,ioos:station:SCCF:53:1,2012-04-01T05:00:00Z,26.6493,-81.8810,2.11,3.2,282.7,-9999.0,'1111122,1111122,1111122' 
SCCF RECON,ioos:station:SCCF:53:1,2012-04-01T05:15:00Z,26.6493,-81.8810,2.11,3.0,293.2,-9999.0,'1111122,1111122,1111122' 
SCCF RECON,ioos:station:SCCF:53:1,2012-04-01T05:30:00Z,26.6493,-81.8810,2.11,1.7,322.9,-9999.0,'1111122,1111122,1111122' 
SCCF RECON,ioos:station:SCCF:53:1,2012-04-01T05:45:00Z,26.6493,-81.8810,2.11,1.3,322.1,-9999.0,'1111122,1111122,1111122' 
SCCF RECON,ioos:station:SCCF:53:1,2012-04-01T06:00:00Z,26.6493,-81.8810,2.11,2.7,343.7,-9999.0,'1111122,1111122,1111122' 
SCCF RECON,ioos:station:SCCF:53:1,2012-04-01T06:15:00Z,26.6493,-81.8810,2.11,2.8,330.5,-9999.0,'1111122,1111122,1111122' 
SCCF RECON,ioos:station:SCCF:53:1,2012-04-01T06:30:00Z,26.6493,-81.8810,2.11,2.1,325.6,-9999.0,'1111122,1111122,1111122' 
SCCF RECON,ioos:station:SCCF:53:1,2012-04-01T06:45:00Z,26.6493,-81.8810,2.11,2.7,296.6,-9999.0,'1111122,1111122,1111122' 
SCCF RECON,ioos:station:SCCF:53:1,2012-04-01T07:00:00Z,26.6493,-81.8810,2.11,2.1,298.6,-9999.0,'1111122,1111122,1111122' 
SCCF RECON,ioos:station:SCCF:53:1,2012-04-01T07:15:00Z,26.6493,-81.8810,2.11,2.1,284.2,-9999.0,'1111122,1111122,1111122' 
SCCF RECON,ioos:station:SCCF:53:1,2012-04-01T07:30:00Z,26.6493,-81.8810,2.11,0.7,314.9,-9999.0,'1111122,1111122,1111122' 
SCCF RECON,ioos:station:SCCF:53:1,2012-04-01T07:45:00Z,26.6493,-81.8810,2.11,1.1,319.3,-9999.0,'1111122,1111122,1111122' 
SCCF RECON,ioos:station:SCCF:53:1,2012-04-01T08:00:00Z,26.6493,-81.8810,2.11,1.0,254.7,-9999.0,'1111122,1111122,1111122' 
SCCF RECON,ioos:station:SCCF:53:1,2012-04-01T08:15:00Z,26.6493,-81.8810,2.11,1.5,334.3,-9999.0,'1111122,1111122,1111122' 
SCCF RECON,ioos:station:SCCF:53:1,2012-04-01T08:30:00Z,26.6493,-81.8810,2.11,0.8,331.7,-9999.0,'1111122,1111122,1111122' 
SCCF RECON,ioos:station:SCCF:53:1,2012-04-01T08:45:00Z,26.6493,-81.8810,2.11,1.8,284.8,-9999.0,'1111122,1111122,1111122' 
SCCF RECON,ioos:station:SCCF:53:1,2012-04-01T09:00:00Z,26.6493,-81.8810,2.11,2.9,293.5,-9999.0,'1111122,1111122,1111122' 
SCCF RECON,ioos:station:SCCF:53:1,2012-04-01T09:15:00Z,26.6493,-81.8810,2.11,2.4,288.0,-9999.0,'1111122,1111122,1111122' 
SCCF RECON,ioos:station:SCCF:53:1,2012-04-01T09:30:00Z,26.6493,-81.8810,2.11,2.8,290.8,-9999.0,'1111122,1111122,1111122' 
SCCF RECON,ioos:station:SCCF:53:1,2012-04-01T09:45:00Z,26.6493,-81.8810,2.11,1.8,298.1,-9999.0,'1111122,1111122,1111122' 
SCCF RECON,ioos:station:SCCF:53:1,2012-04-01T10:00:00Z,26.6493,-81.8810,2.11,1.0,323.4,-9999.0,'1111122,1111122,1111122' 
SCCF RECON,ioos:station:SCCF:53:1,2012-04-01T10:15:00Z,26.6493,-81.8810,2.11,2.4,327.0,-9999.0,'1111122,1111122,1111122' 
SCCF RECON,ioos:station:SCCF:53:1,2012-04-01T10:30:00Z,26.6493,-81.8810,2.11,2.9,341.6,-9999.0,'1111122,1111122,1111122' 
SCCF RECON,ioos:station:SCCF:53:1,2012-04-01T10:45:00Z,26.6493,-81.8810,2.11,2.6,353.9,-9999.0,'1111122,1111122,1111122' 
SCCF RECON,ioos:station:SCCF:53:1,2012-04-01T11:00:00Z,26.6493,-81.8810,2.11,2.9,355.6,-9999.0,'1111122,1111122,1111122' 
SCCF RECON,ioos:station:SCCF:53:1,2012-04-01T11:15:00Z,26.6493,-81.8810,2.11,1.8,333.0,-9999.0,'1111122,1111122,1111122' 
SCCF RECON,ioos:station:SCCF:53:1,2012-04-01T11:30:00Z,26.6493,-81.8810,2.11,2.1,341.8,-9999.0,'1111122,1111122,1111122' 
SCCF RECON,ioos:station:SCCF:53:1,2012-04-01T11:45:00Z,26.6493,-81.8810,2.11,2.6,347.8,-9999.0,'1111122,1111122,1111122' 
SCCF RECON,ioos:station:SCCF:53:1,2012-04-01T12:00:00Z,26.6493,-81.8810,2.11,1.2,290.8,-9999.0,'1111122,1111122,1111122' 
SCCF RECON,ioos:station:SCCF:53:1,2012-04-01T12:15:00Z,26.6493,-81.8810,2.11,1.4,286.3,-9999.0,'1111122,1111122,1111122' 
SCCF RECON,ioos:station:SCCF:53:1,2012-04-01T12:30:00Z,26.6493,-81.8810,2.11,1.0,329.1,-9999.0,'1111122,1111122,1111122' 
SCCF RECON,ioos:station:SCCF:53:1,2012-04-01T12:45:00Z,26.6493,-81.8810,2.11,1.3,278.6,-9999.0,'1111122,1111122,1111122' 
SCCF RECON,ioos:station:SCCF:53:1,2012-04-01T13:00:00Z,26.6493,-81.8810,2.11,1.3,292.7,-9999.0,'1111122,1111122,1111122' 
SCCF RECON,ioos:station:SCCF:53:1,2012-04-01T13:15:00Z,26.6493,-81.8810,2.11,1.2,280.1,-9999.0,'1111122,1111122,1111122' 
SCCF RECON,ioos:station:SCCF:53:1,2012-04-01T13:30:00Z,26.6493,-81.8810,2.11,0.3,262.5,-9999.0,'1111122,1111122,1111122' 
SCCF RECON,ioos:station:SCCF:53:1,2012-04-01T13:45:00Z,26.6493,-81.8810,2.11,1.8,297.0,-9999.0,'1111122,1111122,1111122' 
SCCF RECON,ioos:station:SCCF:53:1,2012-04-01T14:00:00Z,26.6493,-81.8810,2.11,1.5,305.1,-9999.0,'1111122,1111122,1111122' 
SCCF RECON,ioos:station:SCCF:53:1,2012-04-01T14:15:00Z,26.6493,-81.8810,2.11,2.8,343.9,-9999.0,'1111122,1111122,1111122' 
SCCF RECON,ioos:station:SCCF:53:1,2012-04-01T14:30:00Z,26.6493,-81.8810,2.11,2.4,288.8,-9999.0,'1111122,1111122,1111122' 
SCCF RECON,ioos:station:SCCF:53:1,2012-04-01T14:45:00Z,26.6493,-81.8810,2.11,2.5,2.2,-9999.0,'1111122,1111122,1111122' 
SCCF RECON,ioos:station:SCCF:53:1,2012-04-01T15:00:00Z,26.6493,-81.8810,2.11,0.8,341.4,-9999.0,'1111122,1111122,1111122' 
SCCF RECON,ioos:station:SCCF:53:1,2012-04-01T15:15:00Z,26.6493,-81.8810,2.11,2.1,325.8,-9999.0,'1111122,1111122,1111122' 
SCCF RECON,ioos:station:SCCF:53:1,2012-04-01T15:30:00Z,26.6493,-81.8810,2.11,7.0,352.7,-9999.0,'1111122,1111122,1111122' 
SCCF RECON,ioos:station:SCCF:53:1,2012-04-01T15:45:00Z,26.6493,-81.8810,2.11,5.7,346.3,-9999.0,'1111122,1111122,1111122' 
SCCF RECON,ioos:station:SCCF:53:1,2012-04-01T16:00:00Z,26.6493,-81.8810,2.11,6.1,358.4,-9999.0,'1111122,1111122,1111122' 
SCCF RECON,ioos:station:SCCF:53:1,2012-04-01T16:15:00Z,26.6493,-81.8810,2.11,3.6,15.7,-9999.0,'1111122,1111122,1111122' 
SCCF RECON,ioos:station:SCCF:53:1,2012-04-01T16:30:00Z,26.6493,-81.8810,2.11,0.9,296.2,-9999.0,'1111122,1111122,1111122' 
SCCF RECON,ioos:station:SCCF:53:1,2012-04-01T16:45:00Z,26.6493,-81.8810,2.11,3.0,335.8,-9999.0,'1111122,1111122,1111122' 
SCCF RECON,ioos:station:SCCF:53:1,2012-04-01T17:00:00Z,26.6493,-81.8810,2.11,1.9,328.1,-9999.0,'1111122,1111122,1111122' 
SCCF RECON,ioos:station:SCCF:53:1,2012-04-01T17:15:00Z,26.6493,-81.8810,2.11,1.3,307.1,-9999.0,'1111122,1111122,1111122' 
SCCF RECON,ioos:station:SCCF:53:1,2012-04-01T17:30:00Z,26.6493,-81.8810,2.11,0.4,351.4,-9999.0,'1111122,1111122,1111122' 
SCCF RECON,ioos:station:SCCF:53:1,2012-04-01T17:45:00Z,26.6493,-81.8810,2.11,3.9,336.1,-9999.0,'1111122,1111122,1111122' 
SCCF RECON,ioos:station:SCCF:53:1,2012-04-01T18:00:00Z,26.6493,-81.8810,2.11,3.0,284.6,-9999.0,'1111122,1111122,1111122' 
SCCF RECON,ioos:station:SCCF:53:1,2012-04-01T18:15:00Z,26.6493,-81.8810,2.11,3.8,236.6,-9999.0,'1111122,1111122,1111122' 
SCCF RECON,ioos:station:SCCF:53:1,2012-04-01T18:30:00Z,26.6493,-81.8810,2.11,3.4,238.5,-9999.0,'1111122,1111122,1111122' 
SCCF RECON,ioos:station:SCCF:53:1,2012-04-01T18:45:00Z,26.6493,-81.8810,2.11,3.2,280.0,-9999.0,'1111122,1111122,1111122' 
SCCF RECON,ioos:station:SCCF:53:1,2012-04-01T19:00:00Z,26.6493,-81.8810,2.11,5.9,272.1,-9999.0,'1111122,1111122,1111122' 
SCCF RECON,ioos:station:SCCF:53:1,2012-04-01T19:15:00Z,26.6493,-81.8810,2.11,3.9,265.0,-9999.0,'1111122,1111122,1111122' 
SCCF RECON,ioos:station:SCCF:53:1,2012-04-01T19:30:00Z,26.6493,-81.8810,2.11,8.1,289.7,-9999.0,'1111122,1111122,1111122' 
SCCF RECON,ioos:station:SCCF:53:1,2012-04-01T19:45:00Z,26.6493,-81.8810,2.11,7.4,290.4,-9999.0,'1111122,1111122,1111122' 
SCCF RECON,ioos:station:SCCF:53:1,2012-04-01T20:00:00Z,26.6493,-81.8810,2.11,8.1,275.1,-9999.0,'1111122,1111122,1111122' 
SCCF RECON,ioos:station:SCCF:53:1,2012-04-01T20:15:00Z,26.6493,-81.8810,2.11,6.7,277.2,-9999.0,'1111122,1111122,1111122' 
SCCF RECON,ioos:station:SCCF:53:1,2012-04-01T20:30:00Z,26.6493,-81.8810,2.11,7.2,290.2,-9999.0,'1111122,1111122,1111122' 
SCCF RECON,ioos:station:SCCF:53:1,2012-04-01T20:45:00Z,26.6493,-81.8810,2.11,7.6,293.4,-9999.0,'1111122,1111122,1111122' 
SCCF RECON,ioos:station:SCCF:53:1,2012-04-01T21:00:00Z,26.6493,-81.8810,2.11,2.2,296.5,-9999.0,'1111122,1111122,1111122' 
SCCF RECON,ioos:station:SCCF:53:1,2012-04-01T21:15:00Z,26.6493,-81.8810,2.11,8.1,284.1,-9999.0,'1111122,1111122,1111122' 
SCCF RECON,ioos:station:SCCF:53:1,2012-04-01T21:30:00Z,26.6493,-81.8810,2.11,6.6,296.3,-9999.0,'1111122,1111122,1111122' 
SCCF RECON,ioos:station:SCCF:53:1,2012-04-01T21:45:00Z,26.6493,-81.8810,2.11,6.9,289.5,-9999.0,'1111122,1111122,1111122' 
SCCF RECON,ioos:station:SCCF:53:1,2012-04-01T22:00:00Z,26.6493,-81.8810,2.11,6.7,287.9,-9999.0,'1111122,1111122,1111122' 
SCCF RECON,ioos:station:SCCF:53:1,2012-04-01T22:15:00Z,26.6493,-81.8810,2.11,6.3,292.6,-9999.0,'1111122,1111122,1111122' 
SCCF RECON,ioos:station:SCCF:53:1,2012-04-01T22:30:00Z,26.6493,-81.8810,2.11,5.2,285.6,-9999.0,'1111122,1111122,1111122' 
SCCF RECON,ioos:station:SCCF:53:1,2012-04-01T22:45:00Z,26.6493,-81.8810,2.11,6.0,282.4,-9999.0,'1111122,1111122,1111122' 
SCCF RECON,ioos:station:SCCF:53:1,2012-04-01T23:00:00Z,26.6493,-81.8810,2.11,5.9,295.5,-9999.0,'1111122,1111122,1111122' 
SCCF RECON,ioos:station:SCCF:53:1,2012-04-01T23:15:00Z,26.6493,-81.8810,2.11,3.9,288.6,-9999.0,'1111122,1111122,1111122' 
SCCF RECON,ioos:station:SCCF:53:1,2012-04-01T23:30:00Z,26.6493,-81.8810,2.11,5.2,288.8,-9999.0,'1111122,1111122,1111122' 
SCCF RECON,ioos:station:SCCF:53:1,2012-04-01T23:45:00Z,26.6493,-81.8810,2.11,5.8,291.8,-9999.0,'1111122,1111122,1111122' 
SCCF RECON,ioos:station:SCCF:53:1,2012-04-02T00:00:00Z,26.6493,-81.8810,2.11,5.5,282.2,-9999.0,'1111122,1111122,1111122' 
SCCF RECON,ioos:station:SCCF:53:1,2012-04-02T00:15:00Z,26.6493,-81.8810,2.11,4.8,284.6,-9999.0,'1111122,1111122,1111122' 
SCCF RECON,ioos:station:SCCF:53:1,2012-04-02T00:30:00Z,26.6493,-81.8810,2.11,5.5,288.7,-9999.0,'1111122,1111122,1111122' 
SCCF RECON,ioos:station:SCCF:53:1,2012-04-02T00:45:00Z,26.6493,-81.8810,2.11,4.9,290.3,-9999.0,'1111122,1111122,1111122' 
SCCF RECON,ioos:station:SCCF:53:1,2012-04-02T01:00:00Z,26.6493,-81.8810,2.11,5.0,291.0,-9999.0,'1111122,1111122,1111122' 
SCCF RECON,ioos:station:SCCF:53:1,2012-04-02T01:15:00Z,26.6493,-81.8810,2.11,2.7,297.0,-9999.0,'1111122,1111122,1111122' 
SCCF RECON,ioos:station:SCCF:53:1,2012-04-02T01:30:00Z,26.6493,-81.8810,2.11,2.7,306.9,-9999.0,'1111122,1111122,1111122' 
SCCF RECON,ioos:station:SCCF:53:1,2012-04-02T01:45:00Z,26.6493,-81.8810,2.11,1.9,321.0,-9999.0,'1111122,1111122,1111122' 
SCCF RECON,ioos:station:SCCF:53:1,2012-04-02T02:00:00Z,26.6493,-81.8810,2.11,0.5,324.5,-9999.0,'1111122,1111122,1111122' 
SCCF RECON,ioos:station:SCCF:53:1,2012-04-02T02:15:00Z,26.6493,-81.8810,2.11,1.6,7.9,-9999.0,'1111122,1111122,1111122' 
SCCF RECON,ioos:station:SCCF:53:1,2012-04-02T02:30:00Z,26.6493,-81.8810,2.11,2.9,331.5,-9999.0,'1111122,1111122,1111122' 
SCCF RECON,ioos:station:SCCF:53:1,2012-04-02T02:45:00Z,26.6493,-81.8810,2.11,3.2,331.9,-9999.0,'1111122,1111122,1111122' 
SCCF RECON,ioos:station:SCCF:53:1,2012-04-02T03:00:00Z,26.6493,-81.8810,2.11,1.4,1.7,-9999.0,'1111122,1111122,1111122' 
SCCF RECON,ioos:station:SCCF:53:1,2012-04-02T03:15:00Z,26.6493,-81.8810,2.11,2.9,339.7,-9999.0,'1111122,1111122,1111122' 
SCCF RECON,ioos:station:SCCF:53:1,2012-04-02T03:30:00Z,26.6493,-81.8810,2.11,2.6,337.5,-9999.0,'1111122,1111122,1111122' 
SCCF RECON,ioos:station:SCCF:53:1,2012-04-02T03:45:00Z,26.6493,-81.8810,2.11,0.8,296.0,-9999.0,'1111122,1111122,1111122' 
SCCF RECON,ioos:station:SCCF:53:1,2012-04-02T04:00:00Z,26.6493,-81.8810,2.11,1.8,335.7,-9999.0,'1111122,1111122,1111122' 
SCCF RECON,ioos:station:SCCF:53:1,2012-04-02T04:15:00Z,26.6493,-81.8810,2.11,2.0,340.8,-9999.0,'1111122,1111122,1111122' 
SCCF RECON,ioos:station:SCCF:53:1,2012-04-02T04:30:00Z,26.6493,-81.8810,2.11,1.8,339.8,-9999.0,'1111122,1111122,1111122' 
SCCF RECON,ioos:station:SCCF:53:1,2012-04-02T04:45:00Z,26.6493,-81.8810,2.11,1.6,337.6,-9999.0,'1111122,1111122,1111122' 
SCCF RECON,ioos:station:SCCF:53:1,2012-04-02T05:00:00Z,26.6493,-81.8810,2.11,3.1,333.1,-9999.0,'1111122,1111122,1111122' 
SCCF RECON,ioos:station:SCCF:53:1,2012-04-02T05:15:00Z,26.6493,-81.8810,2.11,2.0,321.1,-9999.0,'1111122,1111122,1111122' 
SCCF RECON,ioos:station:SCCF:53:1,2012-04-02T05:30:00Z,26.6493,-81.8810,2.11,2.9,337.9,-9999.0,'1111122,1111122,1111122' 
SCCF RECON,ioos:station:SCCF:53:1,2012-04-02T05:45:00Z,26.6493,-81.8810,2.11,2.2,314.9,-9999.0,'1111122,1111122,1111122' 
SCCF RECON,ioos:station:SCCF:53:1,2012-04-02T06:00:00Z,26.6493,-81.8810,2.11,2.4,348.7,-9999.0,'1111122,1111122,1111122' 
SCCF RECON,ioos:station:SCCF:53:1,2012-04-02T06:15:00Z,26.6493,-81.8810,2.11,2.0,314.9,-9999.0,'1111122,1111122,1111122' 
SCCF RECON,ioos:station:SCCF:53:1,2012-04-02T06:30:00Z,26.6493,-81.8810,2.11,2.2,340.4,-9999.0,'1111122,1111122,1111122' 
SCCF RECON,ioos:station:SCCF:53:1,2012-04-02T06:45:00Z,26.6493,-81.8810,2.11,3.1,359.0,-9999.0,'1111122,1111122,1111122' 
SCCF RECON,ioos:station:SCCF:53:1,2012-04-02T07:00:00Z,26.6493,-81.8810,2.11,3.1,350.7,-9999.0,'1111122,1111122,1111122' 
SCCF RECON,ioos:station:SCCF:53:1,2012-04-02T07:15:00Z,26.6493,-81.8810,2.11,2.2,345.2,-9999.0,'1111122,1111122,1111122' 
SCCF RECON,ioos:station:SCCF:53:1,2012-04-02T07:30:00Z,26.6493,-81.8810,2.11,2.3,355.5,-9999.0,'1111122,1111122,1111122' 
SCCF RECON,ioos:station:SCCF:53:1,2012-04-02T07:45:00Z,26.6493,-81.8810,2.11,2.0,22.4,-9999.0,'1111122,1111122,1111122' 
SCCF RECON,ioos:station:SCCF:53:1,2012-04-02T08:00:00Z,26.6493,-81.8810,2.11,1.4,54.0,-9999.0,'1111122,1111122,1111122' 
SCCF RECON,ioos:station:SCCF:53:1,2012-04-02T08:15:00Z,26.6493,-81.8810,2.11,0.8,17.6,-9999.0,'1111122,1111122,1111122' 
SCCF RECON,ioos:station:SCCF:53:1,2012-04-02T08:30:00Z,26.6493,-81.8810,2.11,1.0,35.8,-9999.0,'1111122,1111122,1111122' 
SCCF RECON,ioos:station:SCCF:53:1,2012-04-02T08:45:00Z,26.6493,-81.8810,2.11,0.3,79.7,-9999.0,'1111122,1111122,1111122' 
SCCF RECON,ioos:station:SCCF:53:1,2012-04-02T09:00:00Z,26.6493,-81.8810,2.11,0.8,116.1,-9999.0,'1111122,1111122,1111122' 
SCCF RECON,ioos:station:SCCF:53:1,2012-04-02T09:15:00Z,26.6493,-81.8810,2.11,2.0,145.5,-9999.0,'1111122,1111122,1111122' 
SCCF RECON,ioos:station:SCCF:53:1,2012-04-02T09:30:00Z,26.6493,-81.8810,2.11,2.0,137.0,-9999.0,'1111122,1111122,1111122' 
SCCF RECON,ioos:station:SCCF:53:1,2012-04-02T09:45:00Z,26.6493,-81.8810,2.11,2.0,139.4,-9999.0,'1111122,1111122,1111122' 
SCCF RECON,ioos:station:SCCF:53:1,2012-04-02T10:00:00Z,26.6493,-81.8810,2.11,2.2,144.5,-9999.0,'1111122,1111122,1111122' 
SCCF RECON,ioos:station:SCCF:53:1,2012-04-02T10:15:00Z,26.6493,-81.8810,2.11,1.6,149.2,-9999.0,'1111122,1111122,1111122' 
SCCF RECON,ioos:station:SCCF:53:1,2012-04-02T10:30:00Z,26.6493,-81.8810,2.11,1.2,114.4,-9999.0,'1111122,1111122,1111122' 
SCCF RECON,ioos:station:SCCF:53:1,2012-04-02T10:45:00Z,26.6493,-81.8810,2.11,0.8,119.5,-9999.0,'1111122,1111122,1111122' 
SCCF RECON,ioos:station:SCCF:53:1,2012-04-02T11:00:00Z,26.6493,-81.8810,2.11,1.4,131.9,-9999.0,'1111122,1111122,1111122' 
SCCF RECON,ioos:station:SCCF:53:1,2012-04-02T11:15:00Z,26.6493,-81.8810,2.11,1.0,102.1,-9999.0,'1111122,1111122,1111122' 
SCCF RECON,ioos:station:SCCF:53:1,2012-04-02T11:30:00Z,26.6493,-81.8810,2.11,1.4,151.5,-9999.0,'1111122,1111122,1111122' 
SCCF RECON,ioos:station:SCCF:53:1,2012-04-02T11:45:00Z,26.6493,-81.8810,2.11,0.5,158.4,-9999.0,'1111122,1111122,1111122' 
SCCF RECON,ioos:station:SCCF:53:1,2012-04-02T12:00:00Z,26.6493,-81.8810,2.11,0.6,75.8,-9999.0,'1111122,1111122,1111122' 
SCCF RECON,ioos:station:SCCF:53:1,2012-04-02T12:15:00Z,26.6493,-81.8810,2.11,0.7,134.9,-9999.0,'1111122,1111122,1111122' 
SCCF RECON,ioos:station:SCCF:53:1,2012-04-02T12:30:00Z,26.6493,-81.8810,2.11,0.6,31.0,-9999.0,'1111122,1111122,1111122' 
SCCF RECON,ioos:station:SCCF:53:1,2012-04-02T12:45:00Z,26.6493,-81.8810,2.11,1.3,25.2,-9999.0,'1111122,1111122,1111122' 
SCCF RECON,ioos:station:SCCF:53:1,2012-04-02T13:00:00Z,26.6493,-81.8810,2.11,1.9,54.0,-9999.0,'1111122,1111122,1111122' 
SCCF RECON,ioos:station:SCCF:53:1,2012-04-02T13:15:00Z,26.6493,-81.8810,2.11,1.1,44.9,-9999.0,'1111122,1111122,1111122' 
SCCF RECON,ioos:station:SCCF:53:1,2012-04-02T13:30:00Z,26.6493,-81.8810,2.11,0.4,67.5,-9999.0,'1111122,1111122,1111122' 
SCCF RECON,ioos:station:SCCF:53:1,2012-04-02T13:45:00Z,26.6493,-81.8810,2.11,1.1,48.8,-9999.0,'1111122,1111122,1111122' 
SCCF RECON,ioos:station:SCCF:53:1,2012-04-02T14:00:00Z,26.6493,-81.8810,2.11,1.2,82.7,-9999.0,'1111122,1111122,1111122' 
SCCF RECON,ioos:station:SCCF:53:1,2012-04-02T14:15:00Z,26.6493,-81.8810,2.11,0.8,49.2,-9999.0,'1111122,1111122,1111122' 
SCCF RECON,ioos:station:SCCF:53:1,2012-04-02T14:30:00Z,26.6493,-81.8810,2.11,0.4,44.8,-9999.0,'1111122,1111122,1111122' 
SCCF RECON,ioos:station:SCCF:53:1,2012-04-02T14:45:00Z,26.6493,-81.8810,2.11,0.7,61.8,-9999.0,'1111122,1111122,1111122' 
SCCF RECON,ioos:station:SCCF:53:1,2012-04-02T15:00:00Z,26.6493,-81.8810,2.11,-9999.0,44.8,-9999.0,'1111122,1111122,1111122' 
SCCF RECON,ioos:station:SCCF:53:1,2012-04-02T15:15:00Z,26.6493,-81.8810,2.11,2.9,61.6,-9999.0,'1111122,1111122,1111122' 
SCCF RECON,ioos:station:SCCF:53:1,2012-04-02T15:30:00Z,26.6493,-81.8810,2.11,0.8,82.8,-9999.0,'1111122,1111122,1111122' 
SCCF RECON,ioos:station:SCCF:53:1,2012-04-02T15:45:00Z,26.6493,-81.8810,2.11,1.3,89.8,-9999.0,'1111122,1111122,1111122' 
SCCF RECON,ioos:station:SCCF:53:1,2012-04-02T16:00:00Z,26.6493,-81.8810,2.11,-9999.0,79.2,-9999.0,'1111122,1111122,1111122' 
SCCF RECON,ioos:station:SCCF:53:1,2012-04-02T16:15:00Z,26.6493,-81.8810,2.11,-9999.0,210.3,-9999.0,'1111122,1111122,1111122' 
SCCF RECON,ioos:station:SCCF:53:1,2012-04-02T16:30:00Z,26.6493,-81.8810,2.11,0.6,197.9,-9999.0,'1111122,1111122,1111122' 
SCCF RECON,ioos:station:SCCF:53:1,2012-04-02T16:45:00Z,26.6493,-81.8810,2.11,1.2,182.2,-9999.0,'1111122,1111122,1111122' 
SCCF RECON,ioos:station:SCCF:53:1,2012-04-02T17:00:00Z,26.6493,-81.8810,2.11,1.6,230.2,-9999.0,'1111122,1111122,1111122' 
SCCF RECON,ioos:station:SCCF:53:1,2012-04-02T17:15:00Z,26.6493,-81.8810,2.11,1.1,193.1,-9999.0,'1111122,1111122,1111122' 
SCCF RECON,ioos:station:SCCF:53:1,2012-04-02T17:30:00Z,26.6493,-81.8810,2.11,3.2,224.9,-9999.0,'1111122,1111122,1111122' 
SCCF RECON,ioos:station:SCCF:53:1,2012-04-02T17:45:00Z,26.6493,-81.8810,2.11,3.5,231.4,-9999.0,'1111122,1111122,1111122' 
SCCF RECON,ioos:station:SCCF:53:1,2012-04-02T18:00:00Z,26.6493,-81.8810,2.11,5.1,206.6,-9999.0,'1111122,1111122,1111122' 
SCCF RECON,ioos:station:SCCF:53:1,2012-04-02T18:15:00Z,26.6493,-81.8810,2.11,4.6,209.9,-9999.0,'1111122,1111122,1111122' 
SCCF RECON,ioos:station:SCCF:53:1,2012-04-02T18:30:00Z,26.6493,-81.8810,2.11,6.4,215.8,-9999.0,'1111122,1111122,1111122' 
SCCF RECON,ioos:station:SCCF:53:1,2012-04-02T18:45:00Z,26.6493,-81.8810,2.11,4.5,216.9,-9999.0,'1111122,1111122,1111122' 
SCCF RECON,ioos:station:SCCF:53:1,2012-04-02T19:00:00Z,26.6493,-81.8810,2.11,5.8,209.9,-9999.0,'1111122,1111122,1111122' 
SCCF RECON,ioos:station:SCCF:53:1,2012-04-02T19:15:00Z,26.6493,-81.8810,2.11,3.8,217.7,-9999.0,'1111122,1111122,1111122' 
SCCF RECON,ioos:station:SCCF:53:1,2012-04-02T19:30:00Z,26.6493,-81.8810,2.11,2.4,240.3,-9999.0,'1111122,1111122,1111122' 
SCCF RECON,ioos:station:SCCF:53:1,2012-04-02T19:45:00Z,26.6493,-81.8810,2.11,6.0,261.5,-9999.0,'1111122,1111122,1111122' 
SCCF RECON,ioos:station:SCCF:53:1,2012-04-02T20:00:00Z,26.6493,-81.8810,2.11,5.5,248.3,-9999.0,'1111122,1111122,1111122' 
SCCF RECON,ioos:station:SCCF:53:1,2012-04-02T20:15:00Z,26.6493,-81.8810,2.11,5.0,265.8,-9999.0,'1111122,1111122,1111122' 
SCCF RECON,ioos:station:SCCF:53:1,2012-04-02T20:30:00Z,26.6493,-81.8810,2.11,3.1,245.1,-9999.0,'1111122,1111122,1111122' 
SCCF RECON,ioos:station:SCCF:53:1,2012-04-02T20:45:00Z,26.6493,-81.8810,2.11,3.3,263.0,-9999.0,'1111122,1111122,1111122' 
SCCF RECON,ioos:station:SCCF:53:1,2012-04-02T21:00:00Z,26.6493,-81.8810,2.11,3.7,277.1,-9999.0,'1111122,1111122,1111122' 
SCCF RECON,ioos:station:SCCF:53:1,2012-04-02T21:15:00Z,26.6493,-81.8810,2.11,4.2,263.0,-9999.0,'1111122,1111122,1111122' 
SCCF RECON,ioos:station:SCCF:53:1,2012-04-02T21:30:00Z,26.6493,-81.8810,2.11,4.3,274.2,-9999.0,'1111122,1111122,1111122' 
SCCF RECON,ioos:station:SCCF:53:1,2012-04-02T21:45:00Z,26.6493,-81.8810,2.11,4.7,249.9,-9999.0,'1111122,1111122,1111122' 
SCCF RECON,ioos:station:SCCF:53:1,2012-04-02T22:00:00Z,26.6493,-81.8810,2.11,5.5,267.7,-9999.0,'1111122,1111122,1111122' 
SCCF RECON,ioos:station:SCCF:53:1,2012-04-02T22:15:00Z,26.6493,-81.8810,2.11,4.9,266.6,-9999.0,'1111122,1111122,1111122' 
SCCF RECON,ioos:station:SCCF:53:1,2012-04-02T22:30:00Z,26.6493,-81.8810,2.11,5.9,282.8,-9999.0,'1111122,1111122,1111122' 
SCCF RECON,ioos:station:SCCF:53:1,2012-04-02T22:45:00Z,26.6493,-81.8810,2.11,6.0,288.9,-9999.0,'1111122,1111122,1111122' 
SCCF RECON,ioos:station:SCCF:53:1,2012-04-02T23:00:00Z,26.6493,-81.8810,2.11,6.3,285.0,-9999.0,'1111122,1111122,1111122' 
SCCF RECON,ioos:station:SCCF:53:1,2012-04-02T23:15:00Z,26.6493,-81.8810,2.11,6.0,287.5,-9999.0,'1111122,1111122,1111122' 
SCCF RECON,ioos:station:SCCF:53:1,2012-04-02T23:30:00Z,26.6493,-81.8810,2.11,4.9,289.4,-9999.0,'1111122,1111122,1111122' 
SCCF RECON,ioos:station:SCCF:53:1,2012-04-02T23:45:00Z,26.6493,-81.8810,2.11,5.6,289.3,-9999.0,'1111122,1111122,1111122' 
SCCF RECON,ioos:station:SCCF:53:1,2012-04-03T00:00:00Z,26.6493,-81.8810,2.11,3.7,294.4,-9999.0,'1111122,1111122,1111122' 
SCCF RECON,ioos:station:SCCF:53:1,2012-04-03T00:15:00Z,26.6493,-81.8810,2.11,2.6,286.5,-9999.0,'1111122,1111122,1111122' 
SCCF RECON,ioos:station:SCCF:53:1,2012-04-03T00:30:00Z,26.6493,-81.8810,2.11,1.7,274.2,-9999.0,'1111122,1111122,1111122' 